MMS 4 (40485 NORAD) Tracking and Keplerian Element Data

This shows tracking and keplerian element data for the satellite.

Feedback or suggestion? Click here.




ElementValue
Catalog40485
NameMMS 4
Epoch Orbit956
Epoch Day345.66319444
Epoch Year2018
RAAN66.7168
Inclination1.8713
Eccentricity0.9064208
Argument of Perigee58.9206
Mean Anonmoly98.4866
Mean Motion0.35494815
Decay Rate-7.55E-06
L11 40485U 15011D 18345.66319444 -.00000755 00000-0 00000+0 0 9994
L22 40485 1.8713 66.7168 9064208 58.9206 98.4866 0.35494815 9566

Live tracking and technical data element details for MMS 4 (NORAD 40485). MMS 4 can be tracked NOW for your location showing map with azimuth and elevation plus other details from your city location.

Track the satellite on the map from your city or location and see movement details for azimuth, elevation, latitude, longitude, range, height, and movement on the map or in text.







IsCatalogInMostPopularTable: catalog: 40485, numindb: 102
Update: records affected: 1



GetName: 40485 MMS 4

Hit Count: updated at: Thu, 13 Dec 2018 03:54:20 GMT